Steamboat Springs, CO

1:00 PM MDT on June 28, 2017 (GMT -0600)
Steamboat Springs-Adams

Weather History for KSBS - August, 2013

Change the Weather History Date:

Saturday, August 31, 2013

  Actual Average Record
Temperature  
Mean Temperature 67 °F -  
Max Temperature 84 °F 78 °F 91 °F (1919)
Min Temperature 50 °F 38 °F 24 °F (1920)
Cooling Degree Days 2    
Growing Degree Days 17 (Base 50)    
Moisture  
Dew Point 45 °F    
Average Humidity 56    
Maximum Humidity 86    
Minimum Humidity 17    
Precipitation  
Precipitation 0.00 in - - ()
Sea Level Pressure  
Sea Level Pressure 30.29 in    
Wind  
Wind Speed 3 mph (NNW)    
Max Wind Speed 18 mph    
Max Gust Speed 26 mph    
Visibility 10 miles    
Events      
Averages and records for this station are not official NWS values.
T = Trace of Precipitation, MM = Missing Value Source: NWS Daily Summary

Daily Weather History Graph

Daily Weather History Graph

Search for Another Location

Airport or City:

Trip Planner

Search our weather history database for the weather conditions in past years. The results will help you decide how hot, cold, wet, or windy it might be!

Date:

Astronomy

Aug. 31, 2013 Rise Set
Actual Time 6:34 AM MDT 7:40 PM MDT
Civil Twilight 6:05 AM MDT 8:08 PM MDT
Nautical Twilight 5:32 AM MDT 8:41 PM MDT
Astronomical Twilight 4:57 AM MDT 9:16 PM MDT
Moon 2:04 AM MDT (8/31) 4:41 PM MDT (8/31)
Length of Visible Light 14h 02m
Length of Day
13h 06m
Waning Crescent, 20% of the Moon is Illuminated
Aug 31
Waning Crescent
Sep 5
New
Sep 12
First Quarter
Sep 19
Full
Sep 26
Last Quarter

Hourly Weather History & Observations

Time (MDT) Temp. Dew Point Humidity Pressure Visibility Wind Dir Wind Speed Gust Speed Precip Events Conditions
12:14 AM 59.2 °F 48.6 °F 68% 30.33 in 10.0 mi WNW 3.5 mph - N/A   Clear
12:34 AM 59.0 °F 48.2 °F 67% 30.33 in 10.0 mi NW 6.9 mph - N/A   Clear
12:54 AM 58.3 °F 48.2 °F 69% 30.32 in 10.0 mi NW 3.5 mph - N/A   Clear
1:14 AM 57.7 °F 47.8 °F 70% 30.32 in 10.0 mi NW 4.6 mph - N/A   Clear
1:34 AM 57.2 °F 47.7 °F 70% 30.32 in 10.0 mi NW 3.5 mph - N/A   Clear
1:54 AM 56.3 °F 47.5 °F 72% 30.32 in 10.0 mi Calm Calm - N/A   Clear
2:14 AM 55.9 °F 47.3 °F 73% 30.32 in 10.0 mi Calm Calm - N/A   Clear
2:34 AM 55.9 °F 47.1 °F 72% 30.32 in 10.0 mi Calm Calm - N/A   Clear
2:54 AM 56.3 °F 47.1 °F 71% 30.32 in 10.0 mi Calm Calm - N/A   Clear
3:14 AM 53.4 °F 46.4 °F 77% 30.32 in 10.0 mi NNW 3.5 mph - N/A   Clear
3:34 AM 53.6 °F 46.6 °F 77% 30.32 in 10.0 mi Calm Calm - N/A   Clear
3:54 AM 53.4 °F 46.4 °F 77% 30.32 in 10.0 mi Calm Calm - N/A   Clear
4:14 AM 52.7 °F 45.5 °F 76% 30.32 in 10.0 mi Calm Calm - N/A   Clear
4:34 AM 52.3 °F 45.7 °F 78% 30.32 in 10.0 mi Calm Calm - N/A   Clear
4:54 AM 53.1 °F 46.4 °F 78% 30.31 in 10.0 mi Calm Calm - N/A   Clear
5:14 AM 52.7 °F 45.5 °F 76% 30.31 in 10.0 mi Calm Calm - N/A   Clear
5:34 AM 52.0 °F 45.9 °F 80% 30.31 in 10.0 mi Calm Calm - N/A   Clear
5:54 AM 52.7 °F 45.9 °F 78% 30.32 in 10.0 mi Calm Calm - N/A   Clear
6:14 AM 50.9 °F 46.8 °F 86% 30.32 in 10.0 mi Calm Calm - N/A   Clear
6:34 AM 51.3 °F 46.8 °F 85% 30.32 in 10.0 mi Calm Calm - N/A   Clear
6:54 AM 50.9 °F 46.6 °F 85% 30.32 in 10.0 mi Calm Calm - N/A   Clear
7:14 AM 50.9 °F 46.9 °F 86% 30.33 in 10.0 mi Calm Calm - N/A   Clear
7:34 AM 52.3 °F 46.0 °F 79% 30.33 in 10.0 mi Calm Calm - N/A   Clear
7:54 AM 55.2 °F 45.5 °F 70% 30.33 in 10.0 mi Calm Calm - N/A   Clear
8:14 AM 55.4 °F 46.0 °F 71% 30.33 in 10.0 mi Calm Calm - N/A   Clear
8:34 AM 58.1 °F 46.4 °F 65% 30.33 in 10.0 mi Calm Calm - N/A   Clear
8:54 AM 60.3 °F 45.9 °F 59% 30.33 in 10.0 mi Calm Calm - N/A   Clear
9:14 AM 62.6 °F 46.4 °F 55% 30.32 in 10.0 mi Calm Calm - N/A   Clear
9:34 AM 63.7 °F 45.7 °F 52% 30.32 in 10.0 mi Calm Calm - N/A   Clear
9:54 AM 64.4 °F 46.0 °F 51% 30.32 in 10.0 mi Calm Calm - N/A   Scattered Clouds
10:14 AM 64.4 °F 46.9 °F 53% 30.32 in 10.0 mi Calm Calm - N/A   Clear
10:34 AM 66.0 °F 47.5 °F 51% 30.32 in 10.0 mi Calm Calm - N/A   Clear
10:54 AM 69.4 °F 46.4 °F 44% 30.32 in 10.0 mi Calm Calm - N/A   Scattered Clouds
11:14 AM 70.9 °F 45.7 °F 40% 30.31 in 10.0 mi Calm Calm - N/A   Scattered Clouds
11:34 AM 74.5 °F 43.2 °F 33% 30.31 in 10.0 mi Calm Calm - N/A   Scattered Clouds
11:54 AM 74.5 °F 41.9 °F 31% 30.30 in 10.0 mi Calm Calm - N/A   Scattered Clouds
12:14 PM 77.5 °F 40.5 °F 26% 30.29 in 10.0 mi NNW 3.5 mph - N/A   Scattered Clouds
12:34 PM 78.6 °F 40.1 °F 25% 30.28 in 10.0 mi Calm Calm - N/A   Clear
12:54 PM 79.7 °F 39.4 °F 24% 30.27 in 10.0 mi SW 6.9 mph - N/A   Clear
1:14 PM 80.8 °F 38.1 °F 22% 30.26 in 10.0 mi SSE 4.6 mph - N/A   Clear
1:34 PM 81.1 °F 37.8 °F 21% 30.26 in 10.0 mi SSE 5.8 mph - N/A   Clear
1:54 PM 83.3 °F 37.0 °F 19% 30.24 in 10.0 mi North 3.5 mph - N/A   Clear
2:14 PM 84.6 °F 36.7 °F 18% 30.24 in 10.0 mi SW 5.8 mph - N/A   Clear
2:34 PM 84.0 °F 34.9 °F 17% 30.22 in 10.0 mi Calm Calm - N/A   Clear
2:54 PM 84.2 °F 34.9 °F 17% 30.23 in 10.0 mi WSW 10.4 mph 18.4 mph N/A   Scattered Clouds
3:14 PM 81.3 °F 35.8 °F 19% 30.23 in 10.0 mi NW 16.1 mph 21.9 mph N/A   Mostly Cloudy
3:34 PM 70.2 °F 47.1 °F 44% 30.24 in 5.0 mi NNW 12.7 mph 20.7 mph N/A   Overcast
3:54 PM 69.8 °F 50.0 °F 49% 30.23 in 10.0 mi North 10.4 mph - N/A   Mostly Cloudy
4:14 PM 73.0 °F 44.2 °F 36% 30.23 in 10.0 mi NNE 5.8 mph - N/A   Mostly Cloudy
4:34 PM 72.9 °F 48.7 °F 42% 30.22 in 10.0 mi ENE 3.5 mph - N/A   Mostly Cloudy
4:54 PM 72.9 °F 43.7 °F 35% 30.21 in 10.0 mi NE 5.8 mph - N/A   Mostly Cloudy
5:14 PM 72.0 °F 43.5 °F 36% 30.22 in 10.0 mi Calm Calm - N/A   Scattered Clouds
5:34 PM 71.1 °F 47.3 °F 43% 30.24 in 10.0 mi WNW 9.2 mph - N/A   Mostly Cloudy
5:54 PM 65.3 °F 47.8 °F 53% 30.24 in 10.0 mi South 9.2 mph - N/A   Overcast
6:14 PM 65.3 °F 47.3 °F 52% 30.24 in 10.0 mi SSW 4.6 mph - N/A   Overcast
6:34 PM 69.1 °F 45.5 °F 43% 30.24 in 10.0 mi ENE 18.4 mph 26.5 mph N/A   Scattered Clouds
6:54 PM 67.6 °F 46.8 °F 47% 30.24 in 10.0 mi East 13.8 mph 23.0 mph N/A   Clear
7:14 PM 67.1 °F 46.6 °F 48% 30.25 in 10.0 mi ESE 9.2 mph - N/A   Clear
7:34 PM 65.5 °F 46.8 °F 51% 30.26 in 10.0 mi Calm Calm - N/A   Clear
7:54 PM 64.2 °F 47.7 °F 55% 30.26 in 10.0 mi Calm Calm - N/A   Clear
8:14 PM 64.2 °F 46.4 °F 52% 30.26 in 10.0 mi SE 3.5 mph - N/A   Clear
8:34 PM 64.4 °F 46.0 °F 51% 30.26 in 10.0 mi Calm Calm - N/A   Clear
8:54 PM 61.0 °F 47.7 °F 62% 30.27 in 10.0 mi NNW 4.6 mph - N/A   Clear
9:14 PM 60.6 °F 48.0 °F 63% 30.28 in 10.0 mi NW 3.5 mph - N/A   Clear
9:34 PM 59.5 °F 47.5 °F 64% 30.28 in 10.0 mi North 3.5 mph - N/A   Clear
9:54 PM 61.0 °F 46.8 °F 59% 30.28 in 10.0 mi Calm Calm - N/A   Clear
10:14 PM 59.0 °F 47.3 °F 65% 30.28 in 10.0 mi SE 5.8 mph - N/A   Clear
10:34 PM 57.4 °F 47.7 °F 70% 30.28 in 10.0 mi Calm Calm - N/A   Clear
10:54 PM 58.5 °F 46.6 °F 65% 30.28 in 10.0 mi Calm Calm - N/A   Clear
11:14 PM 57.4 °F 46.8 °F 68% 30.28 in 10.0 mi Calm Calm - N/A   Clear
11:34 PM 56.8 °F 45.9 °F 67% 30.27 in 10.0 mi Calm Calm - N/A   Clear
11:54 PM 56.3 °F 45.5 °F 67% 30.27 in 10.0 mi Calm Calm - N/A   Clear